Location: Gisborne
(38.6530°S, 178.0040°E)
Time: 10:08:16
(UTC+13:00)

Cosmos 1869 Rocket - Pass Details

Date: 24 January 2019
Orbit: 605 x 633 km, 82.5° (Epoch: 21 October)

Event Time Altitude Azimuth Distance (km) Brightness Sun altitude
Rises 22:29:16 0° 185° (S) 2,914 7.9 -19.7°
Reaches altitude 10° 22:31:32 10° 182° (S) 1,997 6.8 -20.0°
Maximum altitude 22:35:56 68° 98° (E) 665 3.5 -20.5°
Enters shadow 22:36:41 56° 44° (NE) 737 3.5 -20.6°
